AO-07 1 07530U 74089B 14093.84941331 -.00000013 00000-0 18938-3 0 9316 2 07530 101.4659 078.1468 0012396 080.8141 034.3755 12.53603593802206 FO-29 1 24278U 96046B 14093.69390422 -.00000002 00000-0 31117-4 0 3411 2 24278 098.5172 117.8221 0351454 130.8581 343.3864 13.53019434870590 SO-33 1 25509U 98061B 14092.79170685 .00002346 00000-0 44995-3 0 7216 2 25509 031.4318 227.5633 0349908 173.9353 309.3011 14.29433532806350 RS-22 1 27939U 03042A 14093.72480977 .00001894 00000-0 36098-3 0 3658 2 27939 097.8052 271.5942 0013135 348.8763 011.2175 14.65060929561826 VO-52 1 28650U 05017B 14093.78242105 .00004104 00000-0 48244-3 0 6991 2 28650 097.5615 102.4818 0026381 046.7310 313.6101 14.85146866482188 HO-68 1 36122U 09072B 14093.69979222 -.00000043 00000-0 00000 0 0 4650 2 36122 100.2574 147.8215 0007782 049.4272 310.7535 13.16313737206631 AO-73 1 39444U 13066AE 14093.15311924 .00005233 00000-0 70866-3 0 1066 2 39444 097.7784 166.3546 0063765 125.9405 234.7680 14.77944320 18383 UO-11 1 14781U 84021B 14093.19955413 .00001335 00000-0 17697-3 0 4541 2 14781 097.8600 154.7623 0009880 071.3621 288.8664 14.81457686616865 AO-16 1 20439U 90005D 14093.84590532 .00000278 00000-0 11876-3 0 9921 2 20439 098.5020 032.6015 0011131 025.7215 041.9153 14.32323342263843 LO-19 1 20442U 90005G 14093.06090360 .00000315 00000-0 13184-3 0 9288 2 20442 098.4727 032.7146 0011909 017.2224 342.9362 14.32526734263920 AO-27 1 22825U 93061C 14093.79825186 .00000233 00000-0 10792-3 0 6336 2 22825 098.6554 040.3038 0009177 150.1442 271.8344 14.29691362 70152 IO-26 1 22826U 93061D 14093.79711366 .00000270 00000-0 12195-3 0 3912 2 22826 098.6496 040.5343 0009832 143.7944 216.3905 14.29988683 70288 GO-32 1 25397U 98043D 14093.79204814 .00000157 00000-0 87618-4 0 3139 2 25397 098.4605 054.5883 0002087 136.5170 286.0212 14.23426358817288 NO-44 1 26931U 01043C 14092.79409895 .00000350 00000-0 16718-3 0 5682 2 26931 067.0519 232.8645 0005541 277.7978 082.2494 14.30082406652823 SO-50 1 27607U 02058C 14093.50718690 .00002003 00000-0 30265-3 0 3505 2 27607 064.5555 099.9766 0038543 036.6240 323.7974 14.73588355606471 CO-55 1 27844U 03031E 14093.02710508 .00000534 00000-0 26410-3 0 8911 2 27844 098.6997 102.8806 0010870 129.7939 291.3753 14.21450150557905 CO-57 1 27848U 03031J 14093.01415491 .00000458 00000-0 23061-3 0 8337 2 27848 098.7091 102.5377 0010701 135.6009 278.4593 14.21144657557823 AO-51 1 28375U 04025K 14093.78906239 .00000329 00000-0 11083-3 0 8086 2 28375 098.2434 043.2633 0082605 216.4758 143.0787 14.41341232513185 CP3 1 31129U 07012N 14093.54037675 .00001818 00000-0 41093-3 0 7121 2 31129 097.9280 075.3413 0097398 242.9929 240.7094 14.54507846369186 CO-65 1 32785U 08021C 14093.78504507 .00002972 00000-0 35373-3 0 9117 2 32785 097.7075 147.5028 0015294 076.5814 348.3861 14.85009298320982 PRISM 1 33493U 09002B 14093.76386044 .00008641 00000-0 92798-3 0 7904 2 33493 098.2441 266.3030 0017170 329.5009 030.5195 14.88730207281101 SOHLA-1 1 33496U 09002E 14093.15929578 .00001069 00000-0 18360-3 0 3147 2 33496 098.1594 213.9560 0007699 119.4111 001.6338 14.70707841278487 TISAT-1 1 36799U 10035E 14093.78584810 .00006469 00000-0 76031-3 0 526 2 36799 098.0175 185.2495 0013634 199.3956 160.6690 14.85166327201676 STUDSAT 1 36801U 10035G 14093.15019999 .00021602 00000-0 19904-2 0 7968 2 36801 098.0320 191.2594 0010789 178.7609 245.8455 14.94672322201912 ALMASAT-1 1 38078U 12006B 14093.59654267 .00065832 00000-0 14564-2 0 9857 2 38078 069.4698 238.4778 0615640 130.9717 355.2133 14.44122154110843 XATCOBEO 1 38082U 12006F 14093.69944891 .00184206 10356-4 18714-2 0 946 2 38082 069.4532 161.5697 0323030 087.7660 053.7376 15.20747040112939 CUBEBUG-1 1 39153U 13018D 14093.80017789 .00003472 00000-0 49375-3 0 9965 2 39153 098.0446 174.2522 0016814 228.7766 131.1992 14.77440025 50572 ESTCUBE-1 1 39161U 13021C 14093.88786106 .00002711 00000-0 46241-3 0 9731 2 39161 098.1001 175.3305 0008606 274.4620 085.5574 14.69783808 48684 MET-3/5 1 21655U 91056A 14093.82484520 .00000478 00000-0 12088-2 0 9406 2 21655 082.5576 048.9509 0014426 120.8894 239.3649 13.17050813 88199 MET-2/21 1 22782U 93055A 14093.82805520 .00000113 00000-0 88666-4 0 185 2 22782 082.5499 232.2920 0023590 113.8782 049.6954 13.83731816 39830 OKEAN-4 1 23317U 94066A 14093.79145956 .00001936 00000-0 22182-3 0 4952 2 23317 082.5375 137.6771 0019982 350.0459 124.6424 14.85328053 52060 NOAA-14 1 23455U 94089A 14093.43195295 .00000091 00000-0 70987-4 0 7054 2 23455 098.7791 178.1899 0008601 248.2127 242.4834 14.13961857993380 NOAA-15 1 25338U 98030A 14093.50707935 .00000344 00000-0 16455-3 0 1351 2 25338 098.7498 087.5258 0010535 011.9772 097.4413 14.25386563826203 RESURS 1 25394U 98043A 14093.83283806 .00000115 00000-0 67635-4 0 6245 2 25394 098.4050 061.3665 0002613 111.5687 304.1405 14.24384835817734 FENGYUN1 1 25730U 99025A 14093.14334847 .00003005 00000-0 16688-2 0 1163 2 25730 098.9079 054.7294 0026808 325.4109 099.4711 14.11717574766930 OKEAN-0 1 25860U 99039A 14093.83409337 .00001254 00000-0 19334-3 0 2139 2 25860 098.0349 058.1813 0000961 094.7846 321.0167 14.75138404791190 NOAA-16 1 26536U 00055A 14093.17789700 .00000135 00000-0 96446-4 0 6256 2 26536 098.9978 153.1871 0010824 042.9916 019.7666 14.13017465697522 NOAA-17 1 27453U 02032A 14093.50188756 .00000321 00000-0 15515-3 0 5313 2 27453 098.3134 097.1516 0012156 039.7275 123.1923 14.24722774612053 NOAA-18 1 28654U 05018A 14093.49464003 .00000421 00000-0 25527-3 0 178 2 28654 099.1418 071.5229 0015413 113.0037 354.9253 14.11983518457024 NOAA-19 1 33591U 09005A 14093.50862794 .00000201 00000-0 13497-3 0 1827 2 33591 098.9386 038.7954 0013494 334.2890 139.2931 14.11682601265452 HUBBLE 1 20580U 90037B 14093.61010425 .00004264 00000-0 28058-3 0 4728 2 20580 028.4692 167.2842 0002989 201.0624 274.9397 15.05090680113472 ISS 1 25544U 98067A 14094.03144353 -.00138552 00000-0 -24245-2 0 65 2 25544 051.6463 107.0810 0003978 337.2202 062.8076 15.50434083879826 CO-58 1 28895U 05043F 14093.12230245 .00001476 00000-0 30454-3 0 7322 2 28895 097.8421 298.8671 0016353 245.2301 114.7200 14.61733658449287 FALCON 1 30776U 07006E 14091.50500698 .00018079 00000-0 94747-3 0 8352 2 30776 035.4290 228.1268 0001214 327.9234 094.5155 15.14985030389099 MAST 1 31126U 07012K 14092.98306991 .00001048 00000-0 23968-3 0 113 2 31126 097.9088 077.8302 0091437 228.2124 202.5796 14.55150089369454 CAPE1 1 31130U 07012P 14093.63275415 .00001614 00000-0 36754-3 0 179 2 31130 097.9292 075.0096 0097924 243.9786 115.1303 14.54275199368979 COMPASS 1 32787U 08021E 14093.77796555 .00005543 00000-0 61733-3 0 8939 2 32787 097.7097 149.4270 0015243 070.8969 289.3897 14.87399278321122 AAUSAT2 1 32788U 08021F 14093.14413445 .00006064 00000-0 66426-3 0 8792 2 32788 097.7103 149.7107 0014669 071.9210 288.3604 14.88047472321082 DO-64 1 32789U 08021G 14093.14931725 .00010362 00000-0 10170-2 0 9150 2 32789 097.7278 155.5235 0013101 061.3078 351.4607 14.92316869321302 CO-66 1 32791U 08021J 14092.79426642 .00005569 00000-0 63916-3 0 8744 2 32791 097.7091 147.3882 0015877 076.3271 283.9712 14.86154391320856 RS-30 1 32953U 08025A 14093.86089550 .00000010 00000-0 00000 0 0 7971 2 32953 082.4994 247.4196 0018180 319.9208 040.0530 12.43044664266025 METEOR-M 1 35865U 09049A 14093.70643567 .00000068 00000-0 50229-4 0 4063 2 35865 098.5593 143.3456 0002354 335.7543 024.3520 14.21916144235759 RS-38 1 35869U 09049E 14093.77941271 .00000084 00000-0 57107-4 0 3415 2 35869 098.5519 143.2429 0003548 318.8620 154.9605 14.22195700235790 JUGNU 1 37839U 11058B 14093.00818598 .00000565 00000-0 16013-3 0 5920 2 37839 019.9621 350.5689 0018964 235.8241 242.3805 14.12281811127912 SRMSAT 1 37841U 11058D 14093.10756804 .00000518 00000-0 14103-3 0 5954 2 37841 019.9733 007.7818 0011887 179.4236 275.1078 14.10328778127747 RAX-2 1 37853U 11061D 14092.95226664 .00009245 00000-0 64401-3 0 7661 2 37853 101.7170 086.7765 0219366 274.2329 161.3129 14.88413294131462 AUBIESAT 1 37854U 11061E 14092.93333347 .00010866 00000-0 73404-3 0 7481 2 37854 101.7212 088.3526 0217464 271.8111 149.2734 14.89633765131502 HRBE 1 37855U 11061F 14091.82492079 .00013696 00000-0 93197-3 0 7550 2 37855 101.7214 086.1897 0219583 276.0991 205.2399 14.88978175131314 RS-39 1 38051U 11062C 14093.83289228 .00081756 00000-0 13906-2 0 4146 2 38051 051.6295 234.6205 0009758 269.9074 244.4268 15.50657163122537 E-STAR 1 38079U 12006C 14093.67795156 .00111625 53884-5 15946-2 0 8039 2 38079 069.4573 185.7849 0430555 101.9606 043.6219 14.92053661112286 GOLIAT 1 38085U 12006J 14093.80530782 .00113006 53520-5 16693-2 0 9339 2 38085 069.4646 190.9807 0449054 104.5351 044.6966 14.87538677112151 HORYU-2 1 38340U 12025D 14093.13245415 .00004402 00000-0 70510-3 0 8120 2 38340 098.2538 049.1109 0013558 056.5845 303.6658 14.72198636100755 RS-40 1 38735U 12041C 14092.67836179 .00000024 00000-0 10000-3 0 5319 2 38735 082.4795 334.6344 0017800 059.9552 300.3293 12.42558077 76207 PROITERES 1 38756U 12047B 14093.76910833 .00001250 00000-0 19437-3 0 7103 2 38756 098.2286 180.8507 0011431 257.9555 102.0372 14.74814337 84215 BEESAT-3 1 39134U 13015E 14093.75408236 .00013775 00000-0 97987-3 0 5455 2 39134 064.8796 013.9750 0021700 321.7671 038.2408 15.04239276 52465 BEESAT-2 1 39136U 13015G 14093.79047693 .00012493 00000-0 90004-3 0 5344 2 39136 064.8804 014.1300 0021690 321.5338 038.4732 15.03763956 52465 LO-75 1 39382U 13064C 14093.69441411 .00091380 00000-0 26410-2 0 1769 2 39382 040.4989 180.7196 0011982 062.5229 297.6769 15.34493775 20578 ZACUBE-1 1 39417U 13066B 14093.76846201 .00004049 00000-0 55198-3 0 2622 2 39417 097.7804 166.9385 0063742 124.0621 236.6654 14.77802222 19701 TRITON-1 1 39427U 13066M 14093.82311517 .00003936 00000-0 66669-3 0 1142 2 39427 097.7684 164.3159 0119925 126.7344 234.4876 14.65140687 19502 DELFIN3XT 1 39428U 13066N 14092.81609898 .00006451 00000-0 11231-2 0 1175 2 39428 097.7678 162.8561 0130795 130.9672 230.2897 14.62876568 19312 GOMX-1 1 39430U 13066Q 14093.71297565 .00003923 00000-0 75139-3 0 3599 2 39430 097.7643 162.4427 0157980 131.3107 230.1794 14.56581363 19377 MO-76 1 39436U 13066W 14093.45420829 .00028483 00000-0 30774-2 0 1543 2 39436 097.7843 168.3079 0029375 135.1631 225.1860 14.87953432 19757 LO-74 1 39440U 13066AA 14093.13479715 .00004287 00000-0 64008-3 0 1118 2 39440 097.7763 165.2708 0086067 126.2787 234.6393 14.72766973 19530 PUCPSAT-1 1 39442U 13066AC 14093.15025958 .00006281 00000-0 72291-3 0 1083 2 39442 097.7858 167.9492 0035938 130.3397 230.0888 14.85620431 18484 LITSAT-1 1 39568U 98067EM 14093.53427170 .00220905 00000-0 23217-2 0 678 2 39568 051.6450 108.0524 0010518 045.3246 092.8955 15.63010313 5313 LITUANSAT 1 39569U 98067EN 14093.88398506 .00121286 00000-0 15288-2 0 1073 2 39569 051.6470 106.7910 0008597 039.0821 025.8253 15.58668946 5360 SHINAISAT 1 39572U 14009A 14093.49540713 .00047594 00000-0 53324-3 0 541 2 39572 065.0100 300.9753 0012785 279.6907 080.3316 15.62245923 5410 OPUSAT 1 39575U 14009D 14093.86474564 .00117823 00000-0 10536-2 0 624 2 39575 065.0180 299.0819 0006639 297.0758 062.9715 15.67754924 5488 TEIKYOSAT 1 39576U 14009E 14093.39993410 .00066485 00000-0 69574-3 0 498 2 39576 065.0165 301.0806 0008463 296.3197 063.7101 15.64013316 5408 IFT-1 1 39577U 14009F 14093.05057875 .00094568 00000-0 90590-3 0 549 2 39577 065.0102 302.0186 0006884 300.9990 059.0529 15.66133282 5353 INVADER 1 39578U 14009G 14093.75578041 .00219932 00000-0 16263-2 0 515 2 39578 065.0075 299.0834 0007251 266.1136 093.9711 15.72554874 2372 STARS-II 1 39579U 14009H 14093.87978665 .00397557 00000-0 24059-2 0 562 2 39579 065.0040 298.6160 0011770 251.6361 108.3515 15.76133505 5499 /EX